Other Public Products
Issued by NWS Grand Forks, ND

Home | Current Version | Previous Version | Text Only | Print | Product List | Glossary Off
Versions: 1 2 3 4 5 6 7 8 9 10 11 12 13 14 15 16 17 18 19 20 21 22 23 24 25 26 27 28 29 30 31 32 33 34 35 36 37 38 39 40 41 42 43 44 45 46 47 48 49 50

000
FPUS83 KFGF 050431
OPUFGF
PRAIRIE TO PINES WEATHER ROUNDUP
NATIONAL WEATHER SERVICE EASTERN NORTH DAKOTA/GRAND FORKS ND
1100 PM CDT MON MAY 04 2015

 **SATELLITE DATA USED TO AUGMENT SKY COVER AT AUTOMATED STATIONS**
 *****  WEATHER ACROSS EASTERN NORTH DAKOTA  *****

CITY           SKY/WX    TMP DP  RH WIND       PRES   REMARKS
GRAND FORKS    CLEAR     55  26  32 SE7       30.16S
GRAND FORKS AF CLEAR     44  27  51 SE5       30.16S
GRAND CITY NWS   N/A     52 N/A N/A SE7         N/A
BUXTON           N/A     56  21  26 CALM        N/A
DEVILS LAKE    CLEAR     52  37  58 S8        30.15S
FARGO          CLEAR     50  24  36 SE3       30.18R
WAHPETON ARPT  CLEAR     52  28  40 E5        30.19S
$$

 *****  WEATHER ACROSS CENTRAL AND WESTERN NORTH DAKOTA  *****

CITY           SKY/WX    TMP DP  RH WIND       PRES   REMARKS
JAMESTOWN      CLEAR     52  25  35 SE9       30.16R
BISMARCK       MOCLDY    49  30  48 SE6       30.13S
MINOT          MOCLDY    58  29  33 S9        30.09R
MINOT AFB      CLEAR     51  30  43 S12       30.08R
GARRISON         N/A     53  32  44 CALM      30.10S
WILLISTON      CLEAR     57  38  48 S9        30.05R
DICKINSON      CLEAR     46  32  58 SE14      30.07F
HETTINGER      CLOUDY    50  29  44 SE12      30.10F
$$

 *****  OTHER OBSERVATIONS NORTHEAST NORTH DAKOTA  *****

CITY           SKY/WX    TMP DP  RH WIND       PRES   REMARKS
WALHALLA       FAIR      46  32  57 S3        30.15S
LANGDON        FAIR      48  25  40 S13       30.16S
CAVALIER       FAIR      48  28  46 CALM      30.15S HAZE
GRAFTON        FAIR      46  27  46 S8        30.16S
CANDO          FAIR      46  32  57 SE10      30.14S
FORT TOTTEN    NOT AVBL
ROLLA          NOT AVBL
RUGBY          NOT AVBL
 ***** THE ABOVE OBSERVATIONS ARE NON NWS ARE NOT QUALITY
        CONTROLLED AND MAY MIS-REPORT RAIN FOR SNOW...
$$

 *****  OTHER OBSERVATIONS SOUTHEAST NORTH DAKOTA *****

CITY           SKY/WX    TMP DP  RH WIND       PRES   REMARKS
COOPERSTOWN    NOT AVBL
VALLEY CITY    FAIR      50  25  37 SE5       30.18R
OAKES            N/A     45  28  53 E12       30.17S
GWINNER        CLEAR     50  28  43 E8        30.19S
BUFFALO        NOT AVBL
WYNDMERE       NOT AVBL
 ***** THE ABOVE OBSERVATIONS ARE NON NWS ARE NOT QUALITY
       CONTROLLED AND MAY MIS-REPORT RAIN FOR SNOW...
$$

  *****  WEATHER ACROSS NORTHERN MINNESOTA  *****

CITY           SKY/WX    TMP DP  RH WIND       PRES   REMARKS
FLAG ISLAND    CLEAR     52  34  50 CALM      30.18S
WARROAD        CLEAR     46  36  66 CALM      30.20S
ROSEAU         CLEAR     45  28  53 SE5       30.19R
HALLOCK        CLEAR     46  19  34 SE7       30.16S
THF RVR FALLS  CLEAR     50  23  34 SE6       30.19F
HALSTAD          N/A     48  14  26 SE8         N/A
FOSSTON        CLEAR     46  27  46 CALM      30.21S
BAUDETTE       CLEAR     44  36  73 CALM      30.20S
WASKISH        CLEAR     39  30  70 CALM      30.21S
CROOKSTON      CLEAR     52  25  35 SE6       30.19S
$$
  *****  WEATHER ACROSS CENTRAL AND WEST MINNESOTA  *****

CITY           SKY/WX    TMP DP  RH WIND       PRES   REMARKS
BEMIDJI        CLEAR     44  27  50 CALM      30.21F
PARK RAPIDS    CLEAR     55  28  35 SE5       30.21S
WADENA         CLEAR     45  32  61 CALM      30.21S
DETROIT LAKES  CLEAR     52  32  46 CALM      30.21S
MOORHEAD       CLEAR     54  25  32 SE5       30.20R
FERGUS FALLS   CLEAR     52  32  46 E5        30.20S
ELBOW LAKE     FAIR      56  36  46 E7        30.19S
MORRIS MN      PTCLDY    55  30  38 E9        30.18S
STAPLES        CLEAR     46  32  57 CALM      30.22S
WHEATON        PTCLDY    46  25  42 E7        30.20S
$$
  *****  WEATHER ELSEWHERE ACROSS MINNESOTA  *****

CITY           SKY/WX    TMP DP  RH WIND       PRES   REMARKS
DULUTH         CLEAR     47  23  38 CALM      30.22S
INTRNTL FALLS  CLEAR     36  30  79 CALM      30.21S
ELY            CLEAR     37  27  65 CALM      30.24R
CLOQUET        CLEAR     41  23  48 CALM      30.23R
BRAINERD       CLEAR     43  26  51 CALM      30.22S
HIBBING        CLEAR     37  25  61 N3        30.22S
ALEXANDRIA     CLEAR     54  29  38 E7        30.21R
SAINT CLOUD    CLEAR     49  27  42 NE3       30.21R
MINNEAPOLIS    MOCLDY    59  31  34 NE7       30.19R
$$

  *****  WEATHER ACROSS SOUTH DAKOTA  *****

CITY           SKY/WX    TMP DP  RH WIND       PRES   REMARKS
SIOUX FALLS    MOCLDY    54  30  40 E8        30.13S
BROOKINGS      MOCLDY    57  27  30 E10       30.16S
WATERTOWN      PTCLDY    58  26  29 E8        30.16S
HURON          PTCLDY    57  30  35 E9        30.12S
SISSETON         N/A     54  28  36 E5        30.17R
ABERDEEN       PTCLDY    54  28  36 E8        30.15R
MITCHELL       PTCLDY    58  33  39 S7        30.12R
PIERRE         MOCLDY    55  24  30 CALM      30.11R
MOBRIDGE       CLOUDY    57  25  29 E9        30.10S
RAPID CITY     MOCLDY    50  38  63 SW7       30.11S
$$

  *****  SOME WEATHER IN NEARBY STATES *****

CITY           SKY/WX    TMP DP  RH WIND       PRES   REMARKS
GLASGOW MT     CLEAR     60  38  43 SE20      29.88R
GREAT FALLS MT CLEAR     58  18  21 NW6       29.78R
CHEYENNE WY    CLOUDY    45  42  89 SE17      30.12R
SCOTTSBLUFF NE MOCLDY    50  40  68 SE9       30.11R
OMAHA NE       CLOUDY    60  56  86 CALM      30.08R
DES MOINES IA  LGT RAIN  64  61  90 E9        30.08S
DAVENPORT IA   RAIN      64  61  90 E13       30.12R FOG
CHICAGO IL     CLOUDY    56  37  49 NE7       30.17F
EAU CLAIRE WI  PTCLDY    49  37  63 CALM      30.18S
LA CROSSE WI   MOCLDY    58  46  64 N3        30.16R
$$

  *****  SOME NATIONAL WEATHER *****

CITY           SKY/WX    TMP DP  RH WIND       PRES   REMARKS
LA GUARDIA NY  PTCLDY    73  41  31 SW15      30.15S
RALEIGH NC     CLEAR     67  54  63 S10       30.32R
ATLANTA GA     CLEAR     69  52  54 SE5       30.29S
NEW ORLEANS LA CLEAR     71  61  70 SE6       30.17S
OKLAHOMA CITY  MOCLDY    68  58  70 SE12      30.03R
ALBUQUERQUE NM CLOUDY    57  47  69 S13G18    29.99R
SALT LAKE CITY MOCLDY    65  41  41 E6        29.86S
LOS ANGELES CA CLEAR     57  50  77 SW9       29.97R
BOISE ID       LGT RAIN  73  36  25 S21G43    29.76R
SEATTLE WA     MOCLDY    51  44  77 SW15G21   29.97R
$$

*** WEATHER ACROSS MANITOBA...SASKATCHEWAN AND ONTARIO ***
                ***ONTARIO***

CITY           SKY/WX    TMP DP  RH WIND       PRES   REMARKS
GERALDTON      CLEAR     46  30  53 W8        30.17S
THUNDER BAY    CLEAR     41  30  65 NW2       30.22R
SIOUX LOOKOUT  PTCLDY    41  34  75 SW2       30.20R
TORONTO        PTCLDY    57  41  54 NW15      30.18R
BIG TROUT LK   CLEAR     32  23  69 NW6       30.10R
PICKLE LAKE    NOT AVBL
DRYDEN         CLEAR     48  34  57 SW6       30.20S
KENORA         CLEAR     52  32  46 S5        30.20S
$$
                *** MANITOBA***

CITY           SKY/WX    TMP DP  RH WIND       PRES   REMARKS
BRANDON        PTCLDY    54  30  40 SE9       30.11R
DAUPHIN        CLEAR     46  36  66 SE13      30.08S
ISLAND LAKE    MOCLDY    34  27  75 CALM      30.14R
PILOT MOUND      N/A     46  25  42 E8          N/A
THE PAS        PTCLDY    41  28  60 SE5       30.14S
THOMPSON       CLEAR     27  19  74 CALM      30.14R
WINNIPEG       CLEAR     52  28  40 SE9       30.16S
LYNN LAKE      CLEAR     30  16  55 W6        30.13S WCI  24
CHURCHILL      MOCLDY    23  18  80 NW24G30   30.02R WCI   7
GILLAM         CLOUDY    34  21  60 W10       30.09S
$$
                ***SASKATCHEWAN***

CITY           SKY/WX    TMP DP  RH WIND       PRES   REMARKS
ESTEVAN        CLEAR     55  39  54 S14G21    30.04R
KINDERSLEY     PTCLDY    57  37  47 SE14      29.78R
LLOYDMINSTER   MOCLDY    48  32  53 E20       29.90
PRINCE ALBERT  MOCLDY    52  32  46 E12       30.01S
REGINA         MOCLDY    57  34  41 SE16      29.92S
YORKTON        MOCLDY    50  34  53 E7        30.04R



USA.gov is the U.S. government's official web portal to all federal, state and local government web resources and services.